contact:dominique.lefevre@mio.osupytheas.fr, maurice.libes@osupytheas.fr, didier.mallarino@osupytheas.fr
Project:EMSO http://www.emso-fr.org/EMSO-France
Depth: 2436.0 m
Title:EMSO Ligure Ouest : Data MII capteur MICROCAT
DateTime_Computer,Latitude,Longitude,Temperature,Conductivity,Pressure,DateTime_Instrument
DateTime_Computer,Latitude,Longitude,degC,S m-1,dbar,DateTime_Instrument
2022-03-26T00:00:18Z,42.805,6.029,13.3004,4.60057,2470.483,2022-3-26T02:01:55Z
2022-03-26T00:03:21Z,42.805,6.029,13.3006,4.60117,2470.53,2022-3-26T02:04:58Z
2022-03-26T00:06:24Z,42.805,6.029,13.2999,4.60151,2470.53,2022-3-26T02:08:01Z
2022-03-26T00:09:28Z,42.805,6.029,13.2998,4.60111,2470.53,2022-3-26T02:11:04Z
2022-03-26T00:12:31Z,42.805,6.029,13.2995,4.60108,2470.52,2022-3-26T02:14:07Z
2022-03-26T00:15:34Z,42.805,6.029,13.2999,4.60085,2470.544,2022-3-26T02:17:11Z
2022-03-26T00:18:37Z,42.805,6.029,13.2996,4.60117,2470.483,2022-3-26T02:20:14Z
2022-03-26T00:21:40Z,42.805,6.029,13.2997,4.60067,2470.483,2022-3-26T02:23:17Z
2022-03-26T00:24:43Z,42.805,6.029,13.2996,4.60061,2470.507,2022-3-26T02:26:20Z
2022-03-26T00:27:46Z,42.805,6.029,13.2996,4.60054,2470.507,2022-3-26T02:29:23Z
2022-03-26T00:30:49Z,42.805,6.029,13.2996,4.60057,2470.52,2022-3-26T02:32:26Z
2022-03-26T00:33:52Z,42.805,6.029,13.2995,4.60066,2470.544,2022-3-26T02:35:29Z
2022-03-26T00:36:56Z,42.805,6.029,13.2996,4.60057,2470.507,2022-3-26T02:38:32Z
2022-03-26T00:39:59Z,42.805,6.029,13.2994,4.60055,2470.544,2022-3-26T02:41:35Z
2022-03-26T00:43:02Z,42.805,6.029,13.2997,4.60040,2470.507,2022-3-26T02:44:39Z
2022-03-26T00:46:05Z,42.805,6.029,13.2996,4.60036,2470.507,2022-3-26T02:47:42Z
2022-03-26T00:49:08Z,42.805,6.029,13.2997,4.60038,2470.53,2022-3-26T02:50:45Z
2022-03-26T00:52:11Z,42.805,6.029,13.2995,4.60036,2470.553,2022-3-26T02:53:48Z
2022-03-26T00:55:14Z,42.805,6.029,13.2996,4.60036,2470.544,2022-3-26T02:56:51Z
2022-03-26T00:58:17Z,42.805,6.029,13.2996,4.60050,2470.567,2022-3-26T02:59:54Z
2022-03-26T01:01:21Z,42.805,6.029,13.2998,4.60043,2470.567,2022-3-26T03:02:57Z
2022-03-26T01:04:24Z,42.805,6.029,13.2996,4.60041,2470.567,2022-3-26T03:06:00Z
2022-03-26T01:07:27Z,42.805,6.029,13.2997,4.60060,2470.544,2022-3-26T03:09:04Z
2022-03-26T01:10:30Z,42.805,6.029,13.2993,4.60058,2470.544,2022-3-26T03:12:07Z
2022-03-26T01:13:33Z,42.805,6.029,13.2994,4.60056,2470.567,2022-3-26T03:15:10Z
2022-03-26T01:16:36Z,42.805,6.029,13.2996,4.60040,2470.53,2022-3-26T03:18:13Z
2022-03-26T01:19:39Z,42.805,6.029,13.2995,4.60039,2470.507,2022-3-26T03:21:16Z
2022-03-26T01:22:42Z,42.805,6.029,13.2994,4.60033,2470.577,2022-3-26T03:24:19Z
2022-03-26T01:25:46Z,42.805,6.029,13.2996,4.60056,2470.544,2022-3-26T03:27:22Z
2022-03-26T01:28:49Z,42.805,6.029,13.2993,4.60057,2470.53,2022-3-26T03:30:25Z
2022-03-26T01:31:52Z,42.805,6.029,13.2999,4.60053,2470.567,2022-3-26T03:33:29Z
2022-03-26T01:34:55Z,42.805,6.029,13.2998,4.60046,2470.52,2022-3-26T03:36:32Z
2022-03-26T01:37:58Z,42.805,6.029,13.2993,4.60053,2470.53,2022-3-26T03:39:35Z
2022-03-26T01:41:01Z,42.805,6.029,13.2997,4.60047,2470.544,2022-3-26T03:42:38Z
2022-03-26T01:44:04Z,42.805,6.029,13.2993,4.60045,2470.544,2022-3-26T03:45:41Z
2022-03-26T01:47:07Z,42.805,6.029,13.2998,4.60043,2470.544,2022-3-26T03:48:44Z
2022-03-26T01:50:11Z,42.805,6.029,13.2997,4.60044,2470.553,2022-3-26T03:51:47Z
2022-03-26T01:53:14Z,42.805,6.029,13.2996,4.60049,2470.577,2022-3-26T03:54:50Z
2022-03-26T01:56:17Z,42.805,6.029,13.2996,4.60042,2470.53,2022-3-26T03:57:54Z
2022-03-26T01:59:20Z,42.805,6.029,13.2996,4.60043,2470.53,2022-3-26T04:00:57Z
2022-03-26T02:02:23Z,42.805,6.029,13.2996,4.60035,2470.567,2022-3-26T04:04:00Z
2022-03-26T02:05:26Z,42.805,6.029,13.2995,4.60037,2470.6,2022-3-26T04:07:03Z
2022-03-26T02:08:29Z,42.805,6.029,13.2995,4.60038,2470.577,2022-3-26T04:10:06Z
2022-03-26T02:11:32Z,42.805,6.029,13.2994,4.60034,2470.544,2022-3-26T04:13:09Z
2022-03-26T02:14:35Z,42.805,6.029,13.2994,4.60038,2470.553,2022-3-26T04:16:12Z
2022-03-26T02:17:39Z,42.805,6.029,13.2994,4.60036,2470.553,2022-3-26T04:19:15Z
2022-03-26T02:20:42Z,42.805,6.029,13.2996,4.60033,2470.544,2022-3-26T04:22:18Z
2022-03-26T02:23:45Z,42.805,6.029,13.2991,4.60039,2470.567,2022-3-26T04:25:22Z
2022-03-26T02:26:48Z,42.805,6.029,13.2995,4.60040,2470.553,2022-3-26T04:28:25Z
2022-03-26T02:29:51Z,42.805,6.029,13.2994,4.60032,2470.553,2022-3-26T04:31:28Z
2022-03-26T02:32:54Z,42.805,6.029,13.2994,4.60033,2470.553,2022-3-26T04:34:31Z
2022-03-26T02:35:57Z,42.805,6.029,13.2993,4.60034,2470.577,2022-3-26T04:37:34Z
2022-03-26T02:39:00Z,42.805,6.029,13.2995,4.60032,2470.553,2022-3-26T04:40:37Z
2022-03-26T02:42:04Z,42.805,6.029,13.2994,4.60039,2470.553,2022-3-26T04:43:40Z
2022-03-26T02:45:07Z,42.805,6.029,13.2993,4.60038,2470.52,2022-3-26T04:46:43Z
2022-03-26T02:48:10Z,42.805,6.029,13.2996,4.60034,2470.553,2022-3-26T04:49:47Z
2022-03-26T02:51:13Z,42.805,6.029,13.2992,4.60035,2470.553,2022-3-26T04:52:50Z
2022-03-26T02:54:16Z,42.805,6.029,13.2994,4.60033,2470.577,2022-3-26T04:55:53Z
2022-03-26T02:57:19Z,42.805,6.029,13.2994,4.60033,2470.553,2022-3-26T04:58:56Z
2022-03-26T03:00:22Z,42.805,6.029,13.2996,4.60035,2470.567,2022-3-26T05:01:59Z
2022-03-26T03:03:25Z,42.805,6.029,13.2994,4.60036,2470.567,2022-3-26T05:05:02Z
2022-03-26T03:06:29Z,42.805,6.029,13.2998,4.60033,2470.553,2022-3-26T05:08:05Z
2022-03-26T03:09:32Z,42.805,6.029,13.2996,4.60036,2470.577,2022-3-26T05:11:08Z
2022-03-26T03:12:35Z,42.805,6.029,13.2996,4.60033,2470.553,2022-3-26T05:14:12Z
2022-03-26T03:15:38Z,42.805,6.029,13.2993,4.60032,2470.53,2022-3-26T05:17:15Z
2022-03-26T03:18:41Z,42.805,6.029,13.2996,4.60035,2470.567,2022-3-26T05:20:18Z
2022-03-26T03:21:44Z,42.805,6.029,13.2997,4.60034,2470.53,2022-3-26T05:23:21Z
2022-03-26T03:24:47Z,42.805,6.029,13.2994,4.60033,2470.553,2022-3-26T05:26:24Z
2022-03-26T03:27:50Z,42.805,6.029,13.2993,4.60037,2470.553,2022-3-26T05:29:27Z
2022-03-26T03:30:54Z,42.805,6.029,13.2996,4.60033,2470.553,2022-3-26T05:32:30Z
2022-03-26T03:33:57Z,42.805,6.029,13.2996,4.60033,2470.553,2022-3-26T05:35:33Z
2022-03-26T03:37:00Z,42.805,6.029,13.3000,4.60035,2470.567,2022-3-26T05:38:37Z
2022-03-26T03:40:03Z,42.805,6.029,13.3000,4.60034,2470.553,2022-3-26T05:41:40Z
2022-03-26T03:43:06Z,42.805,6.029,13.3000,4.60033,2470.553,2022-3-26T05:44:43Z
2022-03-26T03:46:09Z,42.805,6.029,13.2998,4.60035,2470.553,2022-3-26T05:47:46Z
2022-03-26T03:49:12Z,42.805,6.029,13.2992,4.60035,2470.567,2022-3-26T05:50:49Z
2022-03-26T03:52:15Z,42.805,6.029,13.2996,4.60039,2470.553,2022-3-26T05:53:52Z
2022-03-26T03:55:19Z,42.805,6.029,13.2998,4.60037,2470.591,2022-3-26T05:56:55Z
2022-03-26T03:58:22Z,42.805,6.029,13.2996,4.60035,2470.53,2022-3-26T05:59:58Z
2022-03-26T04:01:25Z,42.805,6.029,13.2996,4.60033,2470.553,2022-3-26T06:03:02Z
2022-03-26T04:04:28Z,42.805,6.029,13.2997,4.60033,2470.553,2022-3-26T06:06:05Z
2022-03-26T04:07:31Z,42.805,6.029,13.3000,4.60033,2470.544,2022-3-26T06:09:08Z
2022-03-26T04:10:34Z,42.805,6.029,13.3001,4.60037,2470.567,2022-3-26T06:12:11Z
2022-03-26T04:13:37Z,42.805,6.029,13.2996,4.60036,2470.577,2022-3-26T06:15:14Z
2022-03-26T04:16:40Z,42.805,6.029,13.2996,4.60033,2470.567,2022-3-26T06:18:17Z
2022-03-26T04:19:44Z,42.805,6.029,13.2996,4.60033,2470.53,2022-3-26T06:21:20Z
2022-03-26T04:22:47Z,42.805,6.029,13.2998,4.60039,2470.567,2022-3-26T06:24:23Z
2022-03-26T04:25:50Z,42.805,6.029,13.2996,4.60033,2470.53,2022-3-26T06:27:27Z
2022-03-26T04:28:53Z,42.805,6.029,13.2996,4.60031,2470.553,2022-3-26T06:30:30Z
2022-03-26T04:31:56Z,42.805,6.029,13.2996,4.60032,2470.553,2022-3-26T06:33:33Z
2022-03-26T04:34:59Z,42.805,6.029,13.2996,4.60037,2470.577,2022-3-26T06:36:36Z
2022-03-26T04:38:02Z,42.805,6.029,13.2996,4.60033,2470.577,2022-3-26T06:39:39Z
2022-03-26T04:41:05Z,42.805,6.029,13.2995,4.60029,2470.544,2022-3-26T06:42:42Z
2022-03-26T04:44:08Z,42.805,6.029,13.2994,4.60028,2470.53,2022-3-26T06:45:45Z
2022-03-26T04:47:12Z,42.805,6.029,13.2996,4.60032,2470.553,2022-3-26T06:48:48Z
2022-03-26T04:50:15Z,42.805,6.029,13.2996,4.60032,2470.577,2022-3-26T06:51:52Z
2022-03-26T04:53:18Z,42.805,6.029,13.2995,4.60031,2470.53,2022-3-26T06:54:55Z
2022-03-26T04:56:21Z,42.805,6.029,13.2996,4.60031,2470.553,2022-3-26T06:57:58Z
2022-03-26T04:59:24Z,42.805,6.029,13.2999,4.60030,2470.507,2022-3-26T07:01:01Z
2022-03-26T05:02:27Z,42.805,6.029,13.2996,4.60033,2470.544,2022-3-26T07:04:04Z
2022-03-26T05:05:30Z,42.805,6.029,13.2994,4.60031,2470.553,2022-3-26T07:07:07Z
2022-03-26T05:08:33Z,42.805,6.029,13.2996,4.60031,2470.53,2022-3-26T07:10:10Z
2022-03-26T05:11:37Z,42.805,6.029,13.2995,4.60032,2470.53,2022-3-26T07:13:13Z
2022-03-26T05:14:40Z,42.805,6.029,13.2997,4.60030,2470.544,2022-3-26T07:16:16Z
2022-03-26T05:17:43Z,42.805,6.029,13.2998,4.60031,2470.53,2022-3-26T07:19:20Z
2022-03-26T05:20:46Z,42.805,6.029,13.2996,4.60031,2470.544,2022-3-26T07:22:23Z
2022-03-26T05:23:49Z,42.805,6.029,13.2996,4.60032,2470.53,2022-3-26T07:25:26Z
2022-03-26T05:26:52Z,42.805,6.029,13.2998,4.60033,2470.52,2022-3-26T07:28:29Z
2022-03-26T05:29:55Z,42.805,6.029,13.2996,4.60031,2470.544,2022-3-26T07:31:32Z
2022-03-26T05:32:58Z,42.805,6.029,13.2996,4.60029,2470.497,2022-3-26T07:34:35Z
2022-03-26T05:36:02Z,42.805,6.029,13.2994,4.60031,2470.544,2022-3-26T07:37:38Z
2022-03-26T05:39:05Z,42.805,6.029,13.2996,4.60031,2470.544,2022-3-26T07:40:41Z
2022-03-26T05:42:08Z,42.805,6.029,13.2997,4.60031,2470.52,2022-3-26T07:43:45Z
2022-03-26T05:45:11Z,42.805,6.029,13.2996,4.60029,2470.516,2022-3-26T07:46:48Z
2022-03-26T05:48:14Z,42.805,6.029,13.2996,4.60029,2470.544,2022-3-26T07:49:51Z
2022-03-26T05:51:17Z,42.805,6.029,13.2996,4.60029,2470.52,2022-3-26T07:52:54Z
2022-03-26T05:54:20Z,42.805,6.029,13.2995,4.60031,2470.53,2022-3-26T07:55:57Z
2022-03-26T05:57:23Z,42.805,6.029,13.2995,4.60031,2470.52,2022-3-26T07:59:00Z
2022-03-26T06:00:27Z,42.805,6.029,13.2996,4.60033,2470.544,2022-3-26T08:02:03Z
2022-03-26T06:03:30Z,42.805,6.029,13.2996,4.60031,2470.507,2022-3-26T08:05:06Z
2022-03-26T06:06:33Z,42.805,6.029,13.2994,4.60030,2470.544,2022-3-26T08:08:10Z
2022-03-26T06:09:36Z,42.805,6.029,13.2996,4.60030,2470.53,2022-3-26T08:11:13Z
2022-03-26T06:12:39Z,42.805,6.029,13.2996,4.60029,2470.507,2022-3-26T08:14:16Z
2022-03-26T06:15:42Z,42.805,6.029,13.2996,4.60031,2470.483,2022-3-26T08:17:19Z
2022-03-26T06:18:45Z,42.805,6.029,13.2994,4.60028,2470.507,2022-3-26T08:20:22Z
2022-03-26T06:21:48Z,42.805,6.029,13.2999,4.60030,2470.544,2022-3-26T08:23:25Z
2022-03-26T06:24:52Z,42.805,6.029,13.2993,4.60030,2470.483,2022-3-26T08:26:28Z
2022-03-26T06:27:55Z,42.805,6.029,13.2999,4.60030,2470.483,2022-3-26T08:29:31Z
2022-03-26T06:30:58Z,42.805,6.029,13.2998,4.60033,2470.46,2022-3-26T08:32:35Z
2022-03-26T06:34:01Z,42.805,6.029,13.2994,4.60029,2470.497,2022-3-26T08:35:38Z
2022-03-26T06:37:04Z,42.805,6.029,13.2996,4.60028,2470.52,2022-3-26T08:38:41Z
2022-03-26T06:40:07Z,42.805,6.029,13.2995,4.60029,2470.52,2022-3-26T08:41:44Z
2022-03-26T06:43:10Z,42.805,6.029,13.2994,4.60031,2470.52,2022-3-26T08:44:47Z
2022-03-26T06:46:13Z,42.805,6.029,13.2997,4.60031,2470.52,2022-3-26T08:47:50Z
2022-03-26T06:49:16Z,42.805,6.029,13.2999,4.60029,2470.474,2022-3-26T08:50:53Z
2022-03-26T06:52:20Z,42.805,6.029,13.2998,4.60031,2470.46,2022-3-26T08:53:56Z
2022-03-26T06:55:23Z,42.805,6.029,13.2998,4.60033,2470.483,2022-3-26T08:57:00Z
2022-03-26T06:58:26Z,42.805,6.029,13.2996,4.60028,2470.483,2022-3-26T09:00:03Z
2022-03-26T07:01:29Z,42.805,6.029,13.2993,4.60029,2470.483,2022-3-26T09:03:06Z
2022-03-26T07:04:32Z,42.805,6.029,13.2996,4.60028,2470.483,2022-3-26T09:06:09Z
2022-03-26T07:07:35Z,42.805,6.029,13.2998,4.60029,2470.497,2022-3-26T09:09:12Z
2022-03-26T07:10:38Z,42.805,6.029,13.2995,4.60029,2470.497,2022-3-26T09:12:15Z
2022-03-26T07:13:41Z,42.805,6.029,13.2998,4.60031,2470.483,2022-3-26T09:15:18Z
2022-03-26T07:16:45Z,42.805,6.029,13.2998,4.60030,2470.46,2022-3-26T09:18:21Z
2022-03-26T07:19:48Z,42.805,6.029,13.2996,4.60030,2470.483,2022-3-26T09:21:24Z
2022-03-26T07:22:51Z,42.805,6.029,13.2999,4.60029,2470.497,2022-3-26T09:24:28Z
2022-03-26T07:25:54Z,42.805,6.029,13.2996,4.60031,2470.507,2022-3-26T09:27:31Z
2022-03-26T07:28:57Z,42.805,6.029,13.2996,4.60029,2470.507,2022-3-26T09:30:34Z
2022-03-26T07:32:00Z,42.805,6.029,13.2999,4.60029,2470.483,2022-3-26T09:33:37Z
2022-03-26T07:35:03Z,42.805,6.029,13.2996,4.60029,2470.52,2022-3-26T09:36:40Z
2022-03-26T07:38:06Z,42.805,6.029,13.2993,4.60029,2470.483,2022-3-26T09:39:43Z
2022-03-26T07:41:10Z,42.805,6.029,13.2994,4.60029,2470.474,2022-3-26T09:42:46Z
2022-03-26T07:44:13Z,42.805,6.029,13.2994,4.60028,2470.483,2022-3-26T09:45:49Z
2022-03-26T07:47:16Z,42.805,6.029,13.2996,4.60031,2470.497,2022-3-26T09:48:53Z
2022-03-26T07:50:19Z,42.805,6.029,13.2996,4.60029,2470.483,2022-3-26T09:51:56Z
2022-03-26T07:53:22Z,42.805,6.029,13.2996,4.60029,2470.507,2022-3-26T09:54:59Z
2022-03-26T07:56:25Z,42.805,6.029,13.2996,4.60029,2470.497,2022-3-26T09:58:02Z
2022-03-26T07:59:28Z,42.805,6.029,13.2994,4.60030,2470.544,2022-3-26T10:01:05Z
2022-03-26T08:02:31Z,42.805,6.029,13.2997,4.60030,2470.46,2022-3-26T10:04:08Z
2022-03-26T08:05:35Z,42.805,6.029,13.2998,4.60032,2470.46,2022-3-26T10:07:11Z
2022-03-26T08:08:38Z,42.805,6.029,13.2998,4.60029,2470.483,2022-3-26T10:10:14Z
2022-03-26T08:11:41Z,42.805,6.029,13.2994,4.60029,2470.483,2022-3-26T10:13:18Z
2022-03-26T08:14:44Z,42.805,6.029,13.2996,4.60031,2470.46,2022-3-26T10:16:21Z
2022-03-26T08:17:47Z,42.805,6.029,13.3000,4.60031,2470.483,2022-3-26T10:19:24Z
2022-03-26T08:20:50Z,42.805,6.029,13.2997,4.60029,2470.474,2022-3-26T10:22:27Z
2022-03-26T08:23:53Z,42.805,6.029,13.2995,4.60029,2470.46,2022-3-26T10:25:30Z
2022-03-26T08:26:56Z,42.805,6.029,13.2999,4.60031,2470.497,2022-3-26T10:28:33Z
2022-03-26T08:30:00Z,42.805,6.029,13.2999,4.60029,2470.474,2022-3-26T10:31:36Z
2022-03-26T08:33:03Z,42.805,6.029,13.2997,4.60031,2470.544,2022-3-26T10:34:39Z
2022-03-26T08:36:06Z,42.805,6.029,13.2998,4.60031,2470.474,2022-3-26T10:37:43Z
2022-03-26T08:39:09Z,42.805,6.029,13.2998,4.60032,2470.46,2022-3-26T10:40:46Z
2022-03-26T08:42:12Z,42.805,6.029,13.3000,4.60029,2470.507,2022-3-26T10:43:49Z
2022-03-26T08:45:15Z,42.805,6.029,13.3004,4.60032,2470.483,2022-3-26T10:46:52Z
2022-03-26T08:48:18Z,42.805,6.029,13.3000,4.60031,2470.483,2022-3-26T10:49:55Z
2022-03-26T08:51:21Z,42.805,6.029,13.2994,4.60029,2470.483,2022-3-26T10:52:58Z
2022-03-26T08:54:25Z,42.805,6.029,13.2998,4.60031,2470.507,2022-3-26T10:56:01Z
2022-03-26T08:57:28Z,42.805,6.029,13.3000,4.60030,2470.46,2022-3-26T10:59:04Z
2022-03-26T09:00:31Z,42.805,6.029,13.2996,4.60031,2470.46,2022-3-26T11:02:08Z
2022-03-26T09:03:34Z,42.805,6.029,13.2996,4.60031,2470.474,2022-3-26T11:05:11Z
2022-03-26T09:06:37Z,42.805,6.029,13.2996,4.60031,2470.52,2022-3-26T11:08:14Z
2022-03-26T09:09:40Z,42.805,6.029,13.3001,4.60031,2470.483,2022-3-26T11:11:17Z
2022-03-26T09:12:43Z,42.805,6.029,13.3000,4.60031,2470.474,2022-3-26T11:14:20Z
2022-03-26T09:15:46Z,42.805,6.029,13.2995,4.60030,2470.474,2022-3-26T11:17:23Z
2022-03-26T09:18:50Z,42.805,6.029,13.3000,4.60029,2470.46,2022-3-26T11:20:26Z
2022-03-26T09:21:53Z,42.805,6.029,13.2999,4.60031,2470.497,2022-3-26T11:23:29Z
2022-03-26T09:24:56Z,42.805,6.029,13.2999,4.60033,2470.474,2022-3-26T11:26:33Z
2022-03-26T09:27:59Z,42.805,6.029,13.3001,4.60031,2470.497,2022-3-26T11:29:36Z
2022-03-26T09:31:02Z,42.805,6.029,13.3000,4.60031,2470.437,2022-3-26T11:32:39Z
2022-03-26T09:34:05Z,42.805,6.029,13.2999,4.60031,2470.474,2022-3-26T11:35:42Z
2022-03-26T09:37:08Z,42.805,6.029,13.3007,4.60031,2470.497,2022-3-26T11:38:45Z
2022-03-26T09:40:11Z,42.805,6.029,13.3000,4.60039,2470.497,2022-3-26T11:41:48Z
2022-03-26T09:43:15Z,42.805,6.029,13.3001,4.60031,2470.46,2022-3-26T11:44:51Z
2022-03-26T09:46:18Z,42.805,6.029,13.3000,4.60032,2470.507,2022-3-26T11:47:55Z
2022-03-26T09:49:21Z,42.805,6.029,13.2998,4.60033,2470.46,2022-3-26T11:50:58Z
2022-03-26T09:52:24Z,42.805,6.029,13.2998,4.60032,2470.483,2022-3-26T11:54:01Z
2022-03-26T09:55:27Z,42.805,6.029,13.2998,4.60033,2470.497,2022-3-26T11:57:04Z
2022-03-26T09:58:30Z,42.805,6.029,13.2998,4.60031,2470.483,2022-3-26T12:00:07Z
2022-03-26T10:01:33Z,42.805,6.029,13.2997,4.60031,2470.46,2022-3-26T12:03:10Z
2022-03-26T10:04:36Z,42.805,6.029,13.2999,4.60031,2470.46,2022-3-26T12:06:13Z
2022-03-26T10:07:40Z,42.805,6.029,13.2997,4.60031,2470.483,2022-3-26T12:09:16Z
2022-03-26T10:10:43Z,42.805,6.029,13.2996,4.60031,2470.423,2022-3-26T12:12:19Z
2022-03-26T10:13:46Z,42.805,6.029,13.2998,4.60033,2470.46,2022-3-26T12:15:23Z
2022-03-26T10:16:49Z,42.805,6.029,13.3000,4.60032,2470.483,2022-3-26T12:18:26Z
2022-03-26T10:19:52Z,42.805,6.029,13.2994,4.60029,2470.474,2022-3-26T12:21:29Z
2022-03-26T10:22:55Z,42.805,6.029,13.2999,4.60032,2470.483,2022-3-26T12:24:32Z
2022-03-26T10:25:58Z,42.805,6.029,13.3001,4.60030,2470.507,2022-3-26T12:27:35Z
2022-03-26T10:29:01Z,42.805,6.029,13.2996,4.60031,2470.474,2022-3-26T12:30:38Z
2022-03-26T10:32:05Z,42.805,6.029,13.3000,4.60030,2470.474,2022-3-26T12:33:41Z
2022-03-26T10:35:08Z,42.805,6.029,13.3002,4.60029,2470.497,2022-3-26T12:36:45Z
2022-03-26T10:38:11Z,42.805,6.029,13.3005,4.60030,2470.52,2022-3-26T12:39:48Z
2022-03-26T10:41:14Z,42.805,6.029,13.2999,4.60033,2470.507,2022-3-26T12:42:51Z
2022-03-26T10:44:17Z,42.805,6.029,13.2997,4.60031,2470.46,2022-3-26T12:45:54Z
2022-03-26T10:47:20Z,42.805,6.029,13.2999,4.60030,2470.507,2022-3-26T12:48:57Z
2022-03-26T10:50:23Z,42.805,6.029,13.3000,4.60029,2470.474,2022-3-26T12:52:00Z
2022-03-26T10:53:26Z,42.805,6.029,13.2998,4.60031,2470.483,2022-3-26T12:55:03Z
2022-03-26T10:56:30Z,42.805,6.029,13.2998,4.60031,2470.483,2022-3-26T12:58:06Z
2022-03-26T10:59:33Z,42.805,6.029,13.2998,4.60032,2470.474,2022-3-26T13:01:10Z
2022-03-26T11:02:36Z,42.805,6.029,13.2999,4.60031,2470.483,2022-3-26T13:04:13Z
2022-03-26T11:05:39Z,42.805,6.029,13.2996,4.60029,2470.507,2022-3-26T13:07:16Z
2022-03-26T11:08:42Z,42.805,6.029,13.2995,4.60031,2470.497,2022-3-26T13:10:19Z
2022-03-26T11:11:45Z,42.805,6.029,13.2997,4.60031,2470.474,2022-3-26T13:13:22Z
2022-03-26T11:14:48Z,42.805,6.029,13.3000,4.60028,2470.483,2022-3-26T13:16:25Z
2022-03-26T11:17:51Z,42.805,6.029,13.2996,4.60029,2470.483,2022-3-26T13:19:28Z
2022-03-26T11:20:55Z,42.805,6.029,13.2996,4.60028,2470.497,2022-3-26T13:22:31Z
2022-03-26T11:23:58Z,42.805,6.029,13.2999,4.60037,2470.52,2022-3-26T13:25:35Z
2022-03-26T11:27:01Z,42.805,6.029,13.2995,4.60028,2470.46,2022-3-26T13:28:38Z
2022-03-26T11:30:04Z,42.805,6.029,13.2996,4.60029,2470.497,2022-3-26T13:31:41Z
2022-03-26T11:33:07Z,42.805,6.029,13.2998,4.60028,2470.507,2022-3-26T13:34:44Z
2022-03-26T11:36:10Z,42.805,6.029,13.2997,4.60029,2470.483,2022-3-26T13:37:47Z
2022-03-26T11:39:13Z,42.805,6.029,13.2998,4.60029,2470.483,2022-3-26T13:40:50Z
2022-03-26T11:42:17Z,42.805,6.029,13.2996,4.60029,2470.497,2022-3-26T13:43:53Z
2022-03-26T11:45:20Z,42.805,6.029,13.2996,4.60029,2470.483,2022-3-26T13:46:56Z
2022-03-26T11:48:23Z,42.805,6.029,13.3002,4.60031,2470.483,2022-3-26T13:50:00Z
2022-03-26T11:51:26Z,42.805,6.029,13.2997,4.60027,2470.544,2022-3-26T13:53:03Z
2022-03-26T11:54:29Z,42.805,6.029,13.2993,4.60027,2470.474,2022-3-26T13:56:06Z
2022-03-26T11:57:32Z,42.805,6.029,13.2998,4.60029,2470.497,2022-3-26T13:59:09Z
2022-03-26T12:00:35Z,42.805,6.029,13.3000,4.60029,2470.46,2022-3-26T14:02:12Z
2022-03-26T12:03:38Z,42.805,6.029,13.2995,4.60028,2470.53,2022-3-26T14:05:15Z
2022-03-26T12:06:42Z,42.805,6.029,13.2995,4.60027,2470.497,2022-3-26T14:08:18Z
2022-03-26T12:09:45Z,42.805,6.029,13.2997,4.60027,2470.507,2022-3-26T14:11:21Z
2022-03-26T12:12:48Z,42.805,6.029,13.2996,4.60029,2470.507,2022-3-26T14:14:25Z
2022-03-26T12:15:51Z,42.805,6.029,13.2996,4.60030,2470.52,2022-3-26T14:17:28Z
2022-03-26T12:18:54Z,42.805,6.029,13.2998,4.60028,2470.52,2022-3-26T14:20:31Z
2022-03-26T12:21:57Z,42.805,6.029,13.2998,4.60027,2470.483,2022-3-26T14:23:34Z
2022-03-26T12:25:00Z,42.805,6.029,13.2995,4.60028,2470.507,2022-3-26T14:26:37Z
2022-03-26T12:28:03Z,42.805,6.029,13.2998,4.60027,2470.47,2022-3-26T14:29:40Z
2022-03-26T12:31:06Z,42.805,6.029,13.2991,4.60028,2470.497,2022-3-26T14:32:43Z
2022-03-26T12:34:10Z,42.805,6.029,13.2996,4.60028,2470.46,2022-3-26T14:35:46Z
2022-03-26T12:37:13Z,42.805,6.029,13.2999,4.60029,2470.497,2022-3-26T14:38:50Z
2022-03-26T12:40:16Z,42.805,6.029,13.2998,4.60027,2470.507,2022-3-26T14:41:53Z
2022-03-26T12:43:19Z,42.805,6.029,13.2993,4.60027,2470.507,2022-3-26T14:44:56Z
2022-03-26T12:46:22Z,42.805,6.029,13.2997,4.60027,2470.497,2022-3-26T14:47:59Z
2022-03-26T12:49:25Z,42.805,6.029,13.2995,4.60028,2470.483,2022-3-26T14:51:02Z
2022-03-26T12:52:28Z,42.805,6.029,13.2996,4.60029,2470.483,2022-3-26T14:54:05Z
2022-03-26T12:55:31Z,42.805,6.029,13.2999,4.60027,2470.483,2022-3-26T14:57:08Z
2022-03-26T12:58:35Z,42.805,6.029,13.2996,4.60035,2470.497,2022-3-26T15:00:11Z
2022-03-26T13:01:38Z,42.805,6.029,13.2998,4.60029,2470.483,2022-3-26T15:03:15Z
2022-03-26T13:04:41Z,42.805,6.029,13.3003,4.60029,2470.483,2022-3-26T15:06:18Z
2022-03-26T13:07:44Z,42.805,6.029,13.2999,4.60027,2470.507,2022-3-26T15:09:21Z
2022-03-26T13:10:47Z,42.805,6.029,13.2996,4.60027,2470.497,2022-3-26T15:12:24Z
2022-03-26T13:13:50Z,42.805,6.029,13.2998,4.60029,2470.483,2022-3-26T15:15:27Z
2022-03-26T13:16:53Z,42.805,6.029,13.2999,4.60029,2470.52,2022-3-26T15:18:30Z
2022-03-26T13:19:56Z,42.805,6.029,13.2996,4.60028,2470.497,2022-3-26T15:21:33Z
2022-03-26T13:23:00Z,42.805,6.029,13.2998,4.60028,2470.46,2022-3-26T15:24:36Z
2022-03-26T13:26:03Z,42.805,6.029,13.2998,4.60028,2470.497,2022-3-26T15:27:40Z
2022-03-26T13:29:06Z,42.805,6.029,13.2998,4.60028,2470.507,2022-3-26T15:30:43Z
2022-03-26T13:32:09Z,42.805,6.029,13.2996,4.60028,2470.52,2022-3-26T15:33:46Z
2022-03-26T13:35:12Z,42.805,6.029,13.2993,4.60028,2470.52,2022-3-26T15:36:49Z
2022-03-26T13:38:15Z,42.805,6.029,13.2995,4.60029,2470.53,2022-3-26T15:39:52Z
2022-03-26T13:41:18Z,42.805,6.029,13.2997,4.60031,2470.507,2022-3-26T15:42:55Z
2022-03-26T13:44:21Z,42.805,6.029,13.3000,4.60029,2470.52,2022-3-26T15:45:58Z
2022-03-26T13:47:25Z,42.805,6.029,13.3001,4.60029,2470.497,2022-3-26T15:49:01Z
2022-03-26T13:50:28Z,42.805,6.029,13.2998,4.60029,2470.483,2022-3-26T15:52:05Z
2022-03-26T13:53:31Z,42.805,6.029,13.2997,4.60029,2470.483,2022-3-26T15:55:08Z
2022-03-26T13:56:34Z,42.805,6.029,13.2998,4.60029,2470.507,2022-3-26T15:58:11Z
2022-03-26T13:59:37Z,42.805,6.029,13.2993,4.60028,2470.483,2022-3-26T16:01:14Z
2022-03-26T14:02:40Z,42.805,6.029,13.2993,4.60029,2470.52,2022-3-26T16:04:17Z
2022-03-26T14:05:43Z,42.805,6.029,13.2999,4.60031,2470.483,2022-3-26T16:07:20Z
2022-03-26T14:08:47Z,42.805,6.029,13.2997,4.60029,2470.483,2022-3-26T16:10:23Z
2022-03-26T14:11:50Z,42.805,6.029,13.2997,4.60029,2470.483,2022-3-26T16:13:26Z
2022-03-26T14:14:53Z,42.805,6.029,13.2998,4.60029,2470.507,2022-3-26T16:16:30Z
2022-03-26T14:17:56Z,42.805,6.029,13.2998,4.60029,2470.553,2022-3-26T16:19:33Z
2022-03-26T14:20:59Z,42.805,6.029,13.2998,4.60029,2470.507,2022-3-26T16:22:36Z
2022-03-26T14:24:02Z,42.805,6.029,13.2996,4.60031,2470.497,2022-3-26T16:25:39Z
2022-03-26T14:27:05Z,42.805,6.029,13.2998,4.60028,2470.53,2022-3-26T16:28:42Z
2022-03-26T14:30:08Z,42.805,6.029,13.2996,4.60028,2470.483,2022-3-26T16:31:45Z
2022-03-26T14:33:12Z,42.805,6.029,13.2996,4.60029,2470.47,2022-3-26T16:34:48Z
2022-03-26T14:36:15Z,42.805,6.029,13.2998,4.60029,2470.544,2022-3-26T16:37:51Z
2022-03-26T14:39:18Z,42.805,6.029,13.3002,4.60029,2470.507,2022-3-26T16:40:55Z
2022-03-26T14:42:21Z,42.805,6.029,13.2997,4.60029,2470.497,2022-3-26T16:43:58Z
2022-03-26T14:45:24Z,42.805,6.029,13.3002,4.60030,2470.507,2022-3-26T16:47:01Z
2022-03-26T14:48:27Z,42.805,6.029,13.2998,4.60030,2470.507,2022-3-26T16:50:04Z
2022-03-26T14:51:30Z,42.805,6.029,13.2998,4.60029,2470.483,2022-3-26T16:53:07Z
2022-03-26T14:54:33Z,42.805,6.029,13.2998,4.60029,2470.507,2022-3-26T16:56:10Z
2022-03-26T14:57:37Z,42.805,6.029,13.2998,4.60029,2470.507,2022-3-26T16:59:13Z
2022-03-26T15:00:40Z,42.805,6.029,13.2996,4.60031,2470.507,2022-3-26T17:02:16Z
2022-03-26T15:03:43Z,42.805,6.029,13.2995,4.60029,2470.52,2022-3-26T17:05:20Z
2022-03-26T15:06:46Z,42.805,6.029,13.2999,4.60031,2470.507,2022-3-26T17:08:23Z
2022-03-26T15:09:49Z,42.805,6.029,13.3000,4.60029,2470.53,2022-3-26T17:11:26Z